Location: İstanbul
(41.0082°N, 28.9784°E)
Time: 01:42:19
(UTC+03:00)

Max Valier Satellite - Visible Passes

Search period start: 19 April 2024 00:00
Search period end: 29 April 2024 00:00
Orbit: 362 x 370 km, 97.1° (Epoch: 18 April)

Date Brightness Start Highest point End Pass type
(mag) Time Alt. Az. Time Alt. Az. Time Alt. Az.
19 Apr ? 21:03:03 10° SSW 21:05:35 27° W 21:08:07 10° NW visible
20 Apr ? 21:35:15 10° WSW 21:35:45 10° W 21:36:14 10° W visible
21 Apr ? 20:31:22 10° SSE 20:34:14 84° ENE 20:37:08 10° N visible
22 Apr ? 21:01:07 10° SSW 21:03:42 29° W 21:06:17 10° NNW visible
23 Apr ? 21:31:57 10° WSW 21:32:59 11° W 21:34:01 10° WNW visible
24 Apr ? 20:27:51 10° SSE 20:30:42 71° ENE 20:33:35 10° N visible
25 Apr ? 20:56:37 10° SSW 20:59:17 35° W 21:01:59 10° NNW visible
26 Apr ? 21:26:07 10° SW 21:27:41 14° W 21:29:16 10° WNW visible
28 Apr ? 20:49:35 10° S 20:52:21 47° W 20:55:10 10° NNW visible
